Hossein Moharrami

Olheiro-Chefe - Persepolis
3 Abr 2027
Sábado
Processo

Personalidade

Adaptabilidade (15) Ambição (11) Controvérsia (20) Lealdade (15) Pressão (15) Profissionalismo (15) Espírito Esportivo (4) Temperamento (10)

Perfil

Estilo de Treinamento Democrático
Licença Nacional A
Determinação 11
Gestão de Pessoas 11
Motivação 8
Disciplina 9
Satisfação no Trabalho
100%
Fadiga
0%
Função Olheiro-Chefe
Salário 13.5K p/s
Contrato 14.03.2030

Desempenho

Comportamento Bom
Eficácia do Treinamento
36%
Desenvolvimento do Jogador
35%
Prevenção de Lesões
30%
Implementação Tática
25%

Eventos Recentes

Participou de uma reunião de recrutamento agora
Participou de uma reunião de recrutamento agora
Avaliou um jogador agora
Avaliou um jogador 7d atrás
Avaliou um jogador 7d atrás
Avaliou um jogador 7d atrás
Avaliou um jogador 7d atrás
Avaliou um jogador 7d atrás

Monitorando agora

202
Jogador Clube Status Habilidade Confiança Observado Última observação Último voto
Andreas Helmersen Bodo/Glimt Ativo 106 / 107 40% 3 02.04.2027 -
Ignacio Ramírez Newell's Old Boys Ativo 127 / 124 40% 1 02.04.2027 -
Ibrahim Cissoko Zwolle Ativo 105 / 132 40% 3 31.03.2027 -
Josh Windass Wrexham Ativo 112 / 136 40% 3 31.03.2027 -
Marcelo Estigarribia Unión de Santa Fe Ativo 125 / 116 40% 1 31.03.2027 -
Tunde AVS Ativo 118 / 128 40% 1 31.03.2027 -
Stefano Moreo Pisa Ativo 130 / 117 40% 2 28.03.2027 -
Silvère Ganvoula Al-Fayha Ativo 113 / 112 40% 3 28.03.2027 -
Caio Lucas Al Ain Ativo 129 / 124 40% 6 27.03.2027 -
Achraf Bencharki Al Ahly Ativo 135 / 138 40% 3 27.03.2027 -
Karim El Berkaoui Al Dhafra Ativo 117 / 129 40% 2 26.03.2027 -
Alejo Cruz Juventud Ativo 107 / 132 40% 1 25.03.2027 -
Nicolás Fernández Belgrano Ativo 121 / 127 40% 1 25.03.2027 -
Zizo Al Ahly Ativo 131 / 145 40% 1 25.03.2027 -
Giuseppe Sibilli Bari Ativo 119 / 126 40% 1 25.03.2027 -
Daniel Kyerewaa Reading Ativo 116 / 98 40% 3 24.03.2027 -
Lucas Soares Santa Clara Ativo 123 / 125 40% 1 24.03.2027 -
Tenton Yenne Baltika Ativo 111 / 103 40% 2 23.03.2027 -
Bar Lin Kryvbas Ativo 102 / 121 40% 2 23.03.2027 -
Juan Bezerra Zamalek Ativo 125 / 129 40% 3 22.03.2027 -
Gift Zwane Platinum Stars Ativo 123 / 109 40% 2 22.03.2027 -
Mohanad Ali Dibba Ativo 112 / 112 40% 3 22.03.2027 -
Akinkunmi Amoo Ismaily Ativo 119 / 104 40% 3 21.03.2027 -
Léo Pereira CSKA Sofia Ativo 123 / 115 40% 3 19.03.2027 -
Caleb Ekuban Genoa Ativo 116 / 126 40% 2 19.03.2027 -
Tommaso Milanese Ascoli Ativo 108 / 115 40% 1 19.03.2027 -
Rafael Santos Borré River Plate Ativo 116 / 139 40% 1 18.03.2027 -
Chuba Akpom Ipswich Town Ativo 141 / 123 40% 1 18.03.2027 -
Fraser Murray Wigan Athletic Ativo 125 / 106 40% 1 18.03.2027 -
Bathusi Aubaas Mamelodi Sundowns Ativo 131 / 124 40% 2 16.03.2027 -
Nabil Fekir Al Jazira Ativo 126 / 137 40% 2 16.03.2027 -
Lewis Wing Reading Ativo 130 / 129 40% 1 16.03.2027 -
Franco Fagúndez Estudiantes Ativo 123 / 102 40% 1 16.03.2027 -
Luca Vignali Virtus Entella Ativo 130 / 128 40% 1 16.03.2027 -
Mohamed Ali Ben Romdhane Al Ahly Ativo 146 / 127 40% 1 16.03.2027 -
Omar Khribin Al Wahda Ativo 125 / 127 40% 1 13.03.2027 -
Giuseppe Panico Foggia Ativo 133 / 102 40% 1 13.03.2027 -
Teboho Tau Ajax Cape Town Ativo 126 / 127 40% 4 11.03.2027 -
Ibrahim Tarek Masr El Makasa Ativo 117 / 132 40% 3 11.03.2027 -
Ramadan Mohsen Zamalek Ativo 113 / 119 40% 2 11.03.2027 -
Jonás Acevedo Instituto Ativo 131 / 121 40% 1 11.03.2027 -
Ali Saleh Al Wasl Ativo 128 / 119 40% 1 11.03.2027 -
Nicolás Giménez Al Wasl Ativo 134 / 127 40% 3 10.03.2027 -
Valerio Mantovani Bari Ativo 116 / 121 40% 1 10.03.2027 -
Renato Júnior Al Wasl Ativo 128 / 119 40% 2 06.03.2027 -
Veton Berisha Viking Ativo 109 / 128 40% 1 06.03.2027 -
Jhon Córdoba Krasnodar Ativo 141 / 135 40% 5 05.03.2027 -
Lassina Traoré Shakhtar Ativo 129 / 111 40% 4 05.03.2027 -
Andrea Belotti Cagliari Ativo 120 / 119 40% 2 04.03.2027 -
Xeber Alkain Karpaty Ativo 127 / 116 40% 1 04.03.2027 -
Giorgos Giakoumakis Al Ain Ativo 123 / 128 40% 3 02.03.2027 -
Fabio Lima Baniyas Ativo 134 / 122 40% 3 01.03.2027 -
Joel Pohjanpalo Palermo Ativo 133 / 143 40% 2 28.02.2027 -
Federico Bernardeschi Bologna Ativo 132 / 124 40% 1 26.02.2027 -
Yassine Benzia Al-Fayha Ativo 132 / 109 40% 1 26.02.2027 -
Odiljon Hamrobekov Tractor Ativo 122 / 123 40% 5 23.02.2027 -
Peter Olayinka Al-Wehda Ativo 132 / 129 40% 1 23.02.2027 -
Jack Currie Oxford United Ativo 122 / 129 40% 3 21.02.2027 -
Rafael Rodrigues Al Ain Ativo 131 / 119 40% 1 21.02.2027 -
John Okoye Ebuka Ittihad Ativo 107 / 127 40% 2 19.02.2027 -
François Kamano Sochi Ativo 120 / 109 40% 4 18.02.2027 -
Mohammad Amin Hazbavi Sepahan Ativo 121 / 126 40% 2 18.02.2027 -
Valentin Rosier Osasuna Ativo 121 / 114 40% 1 18.02.2027 -
Ihor Krasnopir Polissia Ativo 116 / 123 40% 2 17.02.2027 -
Alberto Cerri Cesena Ativo 102 / 124 40% 1 17.02.2027 -
Calum Chambers Cardiff City Ativo 103 / 131 40% 1 14.02.2027 -
Camillo Tavernelli Arezzo Ativo 112 / 118 40% 1 14.02.2027 -
Ante Roguljić Diosgyor Ativo 113 / 122 40% 3 11.02.2027 -
Kirill Schetinin Akhmat Grozny Ativo 110 / 112 40% 3 11.02.2027 -
Berna CSKA 1948 Ativo 124 / 115 40% 1 09.02.2027 -
Edgardo Fariña Nizhniy Novgorod Ativo 107 / 109 40% 1 08.02.2027 -
Youssef Belammari Al Ahly Ativo 124 / 130 40% 1 07.02.2027 -
Chancel Mbemba Al-Diriyah Ativo 130 / 139 40% 1 07.02.2027 -
Ettore Gliozzi Mantova Ativo 113 / 128 40% 1 05.02.2027 -
Sadegh Moharrami Tractor Ativo 112 / 112 40% 3 04.02.2027 -
Artem Slesar Zorya Ativo 117 / 117 40% 2 04.02.2027 -
Ali Soliman Masr El Makasa Ativo 131 / 124 40% 1 04.02.2027 -
Ondrej Duda Zamalek Ativo 149 / 150 40% 1 02.02.2027 -
Keagan Hlatshwayo SuperSport United Ativo 114 / 118 40% 2 01.02.2027 -
Jason Al-Fayha Ativo 117 / 134 40% 1 01.02.2027 -
Tomás Molina Argentinos Juniors Perdido 131 / 111 40% 1 31.01.2027 -
Cedric Gondo Reggiana Ativo 128 / 101 40% 1 30.01.2027 -
Diego Valdés Vélez Perdido 118 / 119 40% 1 30.01.2027 -
Nahuel Ulariaga Al Ahli Ativo 123 / 124 40% 3 28.01.2027 -
Peter Shalulile Mamelodi Sundowns Ativo 138 / 114 40% 1 28.01.2027 -
Lucas Passerini Belgrano Ativo 111 / 118 40% 1 28.01.2027 -
Luis Chávez Dinamo Moscow Ativo 133 / 124 40% 1 28.01.2027 -
Frédéric Maciel CSKA 1948 Ativo 107 / 109 40% 2 26.01.2027 -
Moussa Dembélé Al-Ettifaq Ativo 136 / 125 40% 3 25.01.2027 -
Carlos Paraco Metalist Ativo 117 / 114 40% 1 24.01.2027 -
Irakly Manelov Baltika Ativo 124 / 113 40% 1 19.01.2027 -
Omar Khribin Al Wahda Perdido 131 / 128 40% 6 18.01.2027 -
Achraf Bencharki Al Ahly Perdido 137 / 118 40% 1 18.01.2027 -
Keagan Manyama Ajax Cape Town Ativo 106 / 109 40% 1 14.01.2027 -
Thalente Mbatha Orlando Pirates Ativo 111 / 110 40% 1 13.01.2027 -
Leeroy Owusu ES Setif Ativo 98 / 126 40% 1 11.01.2027 -
Yehor Tverdokhlib LNZ Ativo 112 / 119 40% 1 10.01.2027 -
Erick Ngcobo Black Aces Ativo 92 / 103 40% 1 08.01.2027 -
Pastor CSKA Sofia Ativo 120 / 110 40% 1 05.01.2027 -
Ibrahim Bayesh Al Dhafra Ativo 128 / 119 40% 1 05.01.2027 -
Nikolay Komlichenko Lokomotiv Moscow Rejeitado 119 / 125 40% 4 04.01.2027 Observar
Jasir Asani Esteghlal Ativo 117 / 115 40% 3 31.12.2026 -
Muamer Tanković Omonoia Ativo 121 / 114 40% 1 31.12.2026 -
Wallace Yan Flamengo Ativo 121 / 139 40% 1 30.12.2026 -
Rhian Brewster Derby County Ativo 104 / 112 40% 1 30.12.2026 -
John Kennedy Fluminense Ativo 144 / 119 40% 1 30.12.2026 -
Iuri Medeiros Ujpest Ativo 135 / 131 40% 5 28.12.2026 -
Aubrey Modiba Mamelodi Sundowns Rejeitado 140 / 127 40% 6 28.12.2026 Rejeitar
Adam Bareiro Boca Juniors Ativo 137 / 125 40% 3 28.12.2026 Observar
Alfredo Garcia La Equidad Ativo 154 / 145 40% 4 26.12.2026 -
Nduduzo Sibiya Golden Arrows Ativo 121 / 116 40% 4 26.12.2026 -
Max Meyer APOEL Ativo 139 / 122 40% 2 25.12.2026 -
Đorđe Ivanović AE Kition Ativo 126 / 100 40% 1 24.12.2026 -
Roger Martínez Al-Shabab Ativo 137 / 129 40% 7 20.12.2026 -
Róbert Polievka MTK Budapest Ativo 113 / 103 40% 1 20.12.2026 -
Mees Hoedemakers Viborg Ativo 132 / 108 40% 1 18.12.2026 -
Muharrem Jashari LNZ Ativo 120 / 107 40% 1 18.12.2026 -
Davit Volkovi Zira Ativo 103 / 115 40% 2 17.12.2026 -
Eduardo Guerrero Dynamo Kyiv Ativo 119 / 118 40% 1 17.12.2026 -
Borislav Tsonev CSKA 1948 Ativo 120 / 114 40% 2 15.12.2026 -
Waldo AE Kition Ativo 108 / 100 40% 1 15.12.2026 -
Leo Goglichidze Rodina Ativo 108 / 110 40% 1 14.12.2026 -
Rifat Zhemaletdinov Ural Ativo 118 / 121 40% 1 12.12.2026 -
Miroslav Bogosavac Akhmat Grozny Ativo 124 / 111 40% 2 11.12.2026 -
Miroslav Pekarik FK Senica Ativo 110 / 112 40% 2 11.12.2026 -
Dominik Yankov Arda Ativo 123 / 114 40% 1 11.12.2026 -
Julián Palacios Unión de Santa Fe Ativo 120 / 102 40% 1 10.12.2026 -
Kyreece Lisbie Colchester United Ativo 117 / 110 40% 1 10.12.2026 -
Kristoffer Zachariassen Ferencvaros Perdido 130 / 122 40% 2 08.12.2026 Mais informações
David Terans Fluminense Perdido 132 / 120 40% 1 08.12.2026 -
Andraž Šporar Slovan Bratislava Perdido 125 / 120 40% 2 06.12.2026 -
Jean-Philippe Gbamin CSKA Sofia Ativo 127 / 116 40% 1 04.12.2026 -
Valentin Yefimov Ravan Ativo 126 / 109 40% 1 02.12.2026 -
Simen Juklerød DAC Dunajska Streda Ativo 120 / 116 40% 2 01.12.2026 -
Jakub Plšek MTK Budapest Ativo 129 / 117 40% 2 30.11.2026 -
Jeremy Márquez Cruz Azul Ativo 141 / 135 40% 1 30.11.2026 -
Lebohang Maboe Kaizer Chiefs Ativo 132 / 111 40% 3 28.11.2026 -
Mohammad Naderi Tractor Ativo 123 / 110 40% 2 28.11.2026 -
Ousmane Camara Sharjah Ativo 111 / 120 40% 2 28.11.2026 -
Fernando Gorriarán Tigres Ativo 128 / 130 40% 3 26.11.2026 -
Matt Grimes Coventry City Ativo 116 / 139 40% 1 25.11.2026 -
Mohamed Ofkir Valerenga Ativo 113 / 118 40% 2 24.11.2026 -
Emi Rodriguez Leon Ativo 107 / 117 40% 3 23.11.2026 -
Fahd Moufi Baltika Ativo 113 / 111 40% 1 23.11.2026 -
Ioannis Pittas CSKA Sofia Ativo 116 / 127 40% 4 19.11.2026 -
Álvaro Medrán Al-Ettifaq Ativo 137 / 127 40% 3 19.11.2026 -
Ole Selnæs Rosenborg Ativo 126 / 135 40% 2 19.11.2026 -
Mehdi Torabi Tractor Ativo 117 / 117 40% 3 16.11.2026 -
Petar Mićin Valerenga Ativo 118 / 102 40% 1 14.11.2026 -
Marko Grujić Levski Ativo 137 / 127 40% 2 12.11.2026 -
Lucas Olaza Krasnodar Ativo 120 / 131 40% 3 10.11.2026 -
Francisco González Metilli Belgrano Ativo 109 / 131 40% 4 07.11.2026 -
Maximiliano Gómez Nacional Ativo 106 / 132 40% 2 07.11.2026 -
Sondre Brunstad Fet Bodo/Glimt Ativo 138 / 125 40% 1 02.11.2026 -
Mohau Nkota Al-Ettifaq Ativo 118 / 129 40% 2 01.11.2026 -
Jay-Roy Grot OB Ativo 104 / 116 40% 1 01.11.2026 -
Kristian Eriksen Molde Ativo 111 / 125 40% 6 31.10.2026 -
Mohamed Kanno Al-Hilal Ativo 121 / 120 40% 2 31.10.2026 -
Stefan Kovač Baltika Ativo 114 / 106 40% 1 31.10.2026 -
Mateus Castro Nagoya Grampus Ativo 108 / 115 40% 3 30.10.2026 -
Steve Mvoué IK Start Ativo 127 / 114 40% 2 29.10.2026 -
Aimar Sher Sarpsborg 08 Ativo 103 / 135 40% 1 29.10.2026 -
Andreas Nibe Sarpsborg 08 Ativo 103 / 121 40% 1 24.10.2026 -
Peter Christiansen Viking Ativo 106 / 115 40% 2 21.10.2026 -
Ivan Sergeev Dinamo Moscow Ativo 123 / 118 40% 1 21.10.2026 -
Darko Todorović Fakel Ativo 105 / 120 40% 1 18.10.2026 -
Caleb Zady Sery Molde Ativo 100 / 111 40% 1 18.10.2026 -
Eldar Ćivić Baltika Ativo 111 / 114 40% 1 17.10.2026 -
Iver Fossum Rosenborg Ativo 125 / 120 40% 3 16.10.2026 -
Daniel Bassi Lillestrom Ativo 119 / 124 40% 1 14.10.2026 -
Ceyhun Nuriyev Gabala Ativo 120 / 123 40% 1 14.10.2026 -
Henrik Bjørdal Valerenga Ativo 123 / 138 40% 1 10.10.2026 -
Jakob Dunsby Sandefjord Ativo 123 / 101 40% 1 10.10.2026 -
Žan Karničnik NK Maribor Ativo 130 / 125 40% 3 08.10.2026 -
Marko Janković Qarabag Ativo 120 / 112 40% 2 05.10.2026 -
David Barbona Defensa y Justicia Ativo 109 / 135 40% 5 30.09.2026 -
Adrián Fernández Racing Club Ativo 123 / 132 40% 2 28.09.2026 -
Franchu CSKA Moscow Ativo 107 / 122 40% 1 28.09.2026 -
Mduduzi Shabalala Kaizer Chiefs Ativo 101 / 101 40% 1 28.09.2026 -
Edvin Austbø Viking Ativo 132 / 114 40% 1 26.09.2026 -
Franco Cristaldo Talleres Ativo 138 / 133 40% 4 23.09.2026 -
Jonas Auer Rapid Wien Ativo 130 / 103 40% 1 23.09.2026 -
Sory Kaba Al Dhafra Ativo 109 / 119 40% 1 23.09.2026 -
Mothobi Mvala Mamelodi Sundowns Ativo 102 / 119 40% 2 20.09.2026 -
Ibrahim Aliyu Houston Dynamo Ativo 129 / 131 40% 1 20.09.2026 -
Wílmar Barrios Zenit Ativo 134 / 130 40% 2 19.09.2026 -
Valentín Depietri Talleres Ativo 108 / 119 40% 1 17.09.2026 -
Tibor Halilović Tractor Ativo 117 / 118 40% 1 15.09.2026 -
Shusuke Ota Shonan Bellmare Ativo 130 / 98 40% 1 15.09.2026 -
Birk Risa Molde Ativo 129 / 113 40% 1 10.09.2026 -
Franco Torres Gimnasia La Plata Ativo 127 / 109 40% 1 09.09.2026 -
Matías Pellegrini Vélez Ativo 105 / 128 40% 1 03.09.2026 -
Ilja Vakhania Krasnodar Ativo 127 / 113 40% 1 01.09.2026 -
Alexey Mironov Rostov Ativo 123 / 107 40% 1 31.08.2026 -
Lucas Souto Defensa y Justicia Ativo 107 / 130 40% 1 25.08.2026 -
Fawaaz Basadien Mamelodi Sundowns Ativo 123 / 115 40% 1 25.08.2026 -
Aslak Fonn Witry Rosenborg Ativo 120 / 140 40% 1 24.08.2026 -
Firas Ben Larbi Sharjah Ativo 129 / 128 40% 1 23.08.2026 -
Ramón Mierez Al Nasr Ativo 114 / 121 40% 1 21.08.2026 -
Ramiro Ruiz Rodríguez Atlético Tucumán Ativo 108 / 135 40% 1 19.08.2026 -
Rouzbeh Cheshmi Esteghlal Ativo 132 / 118 58% 1 17.08.2026 Aprovar
Eduard Löwen San Jose Earthquakes Ativo 125 / 138 40% 1 01.08.2026 -